This is the latest recevied weather packets stored in our database for station/object KC3DGM. If no packets are shown the sender has not sent any weather packets the latest 1 day(s).
| Time | Temp. | Humidity | Pressure | Rain* | Wind** | Luminosity | Snow |
|---|---|---|---|---|---|---|---|
| 1778038607 | 10.56° C | 99% | 979.3 hPa | 1.78 mm | 0 m/s | 0 W/m² | - |
| 1778038303 | 10.56° C | 99% | 979.3 hPa | 1.78 mm | 0 m/s | 0 W/m² | - |
| 1778038000 | 10.56° C | 99% | 979.4 hPa | 1.27 mm | 0 m/s | 0 W/m² | - |
| 1778037697 | 10.56° C | 99% | 979.5 hPa | 1.27 mm | 0 m/s | 0 W/m² | - |
| 1778037394 | 10.56° C | 99% | 979.7 hPa | 4.83 mm | 0 m/s | 0 W/m² | - |
| 1778037091 | 10.56° C | 99% | 979.6 hPa | 6.1 mm | 0 m/s | 0 W/m² | - |
| 1778036790 | 10.56° C | 99% | 979.6 hPa | 3.05 mm | 0 m/s | 0 W/m² | - |
| 1778036487 | 10.56° C | 99% | 979.6 hPa | 1.78 mm | 0 m/s | 0 W/m² | - |
| 1778036183 | 10.56° C | 99% | 979.5 hPa | 1.27 mm | 0 m/s | 0 W/m² | - |
| 1778035879 | 10.56° C | 99% | 979.6 hPa | 4.32 mm | 0 m/s | 0 W/m² | - |
| 1778035577 | 10.56° C | 99% | 979.9 hPa | 4.83 mm | 0 m/s | 0 W/m² | - |
| 1778035273 | 10.56° C | 99% | 979.9 hPa | 3.56 mm | 0 m/s | 0 W/m² | - |
| 1778034969 | 10.56° C | 99% | 980 hPa | 1.78 mm | 0 m/s | 0 W/m² | - |
| 1778034667 | 10.56° C | 99% | 980 hPa | 1.27 mm | 0 m/s | 0 W/m² | - |
| 1778034364 | 10.56° C | 98% | 980.1 hPa | 1.78 mm | 0 m/s | 0 W/m² | - |
| 1778034062 | 10.56° C | 98% | 980 hPa | 1.78 mm | 0 m/s | 0 W/m² | - |
| 1778033759 | 10.56° C | 98% | 980 hPa | 1.27 mm | 0.45 m/s, 277° | 0 W/m² | - |
| 1778033456 | 10.56° C | 98% | 980.2 hPa | 1.27 mm | 0 m/s | 0 W/m² | - |
| 1778033153 | 10.56° C | 98% | 980 hPa | 1.78 mm | 0 m/s | 0 W/m² | - |
| 1778032851 | 10.56° C | 98% | 980.1 hPa | 1.78 mm | 0 m/s | 0 W/m² | - |
| 1778032548 | 10.56° C | 98% | 980.2 hPa | 1.27 mm | 0 m/s | 0 W/m² | - |
| 1778032245 | 10.56° C | 98% | 980.1 hPa | 1.78 mm | 0 m/s | 0 W/m² | - |
| 1778031943 | 10.56° C | 98% | 980 hPa | 3.05 mm | 0 m/s | 0 W/m² | - |
| 1778031638 | 10.56° C | 98% | 980.1 hPa | 3.05 mm | 0 m/s | 0 W/m² | - |
| 1778031336 | 10.56° C | 98% | 980 hPa | 3.05 mm | 0 m/s | 0 W/m² | - |
* Rain latest hour (hover to see other rain measurements)
** Current wind speed in m/s (hover to see current wind gust speed)